EW4993 Weather Reports


time (UTC)temp
F
wind
direction
speed
knots
gust
knots
rain 1hr
in
rain 24hr
in
rain mn
in
humidity
%
barometer
mb
20260509184502 83 51 0.0 6.1 0.00 0.02 0.02 74 985.1
20260509183047 82 52 0.0 5.2 0.00 0.02 0.02 77 985.3
20260509181550 81 74 0.9 3.5 0.00 0.02 0.02 76 985.4
20260509180044 82 133 0.0 2.6 0.00 0.02 0.02 77 985.6
20260509174541 81 76 2.6 7.0 0.00 0.02 0.02 79 985.6
20260509173039 80 25 4.3 8.7 0.00 0.02 0.02 80 985.8
20260509171536 78 25 3.5 8.7 0.00 0.02 0.02 81 985.9
20260509170039 77 55 6.1 9.6 0.00 0.02 0.02 80 986.0
20260509164536 77 45 7.8 10.4 0.00 0.02 0.02 81 986.2
20260509163035 78 131 0.0 5.2 0.00 0.02 0.02 80 986.2
20260509161534 78 197 2.6 6.1 0.00 0.02 0.02 78 986.2
20260509160036 77 170 4.3 7.8 0.00 0.02 0.02 76 986.0
20260509154530 77 163 3.5 7.8 0.00 0.02 0.02 76 986.0
20260509153040 77 127 2.6 6.1 0.00 0.02 0.02 74 985.8
20260509151528 77 150 0.0 2.6 0.00 0.02 0.02 66 985.6
20260509150006 76 151 0.0 0.9 0.00 0.02 0.02 63 985.6
20260509144521 75 52 1.7 7.0 0.00 0.02 0.02 63 985.7
20260509143108 74 236 7.0 12.2 0.00 0.02 0.02 64 984.5
20260509141547 73 209 3.5 7.8 0.00 0.02 0.02 65 984.4
20260509140028 73 216 2.6 7.8 0.00 0.02 0.02 65 984.5
20260509134545 72 214 3.5 7.0 0.00 0.02 0.02 65 984.8
20260509133017 72 219 3.5 6.1 0.00 0.02 0.02 65 984.7
20260509131513 71 182 1.7 6.1 0.00 0.02 0.02 65 984.5
20260509130058 71 199 3.5 5.2 0.00 0.02 0.02 66 984.3
20260509124551 71 39 0.0 5.2 0.00 0.02 0.02 66 984.6
20260509123034 71 248 4.3 8.7 0.00 0.02 0.02 66 984.3
20260509121543 70 250 2.6 4.3 0.01 0.02 0.02 66 984.6
20260509120014 70 259 0.9 5.2 0.02 0.02 0.02 66 984.9
20260509114527 71 224 0.0 0.0 0.02 0.02 0.02 66 985.3
20260509113056 71 221 0.0 0.0 0.02 0.02 0.02 66 985.8
20260509111605 71 221 0.0 0.0 0.01 0.01 0.01 66 986.1
20260509110036 71 27 0.0 1.7 0.00 0.00 0.00 66 986.3
20260509104543 71 39 0.0 0.0 0.00 0.00 0.00 66 986.3
20260509103017 71 39 0.0 1.7 0.00 0.00 0.00 66 986.5
20260509101517 71 39 0.9 3.5 0.00 0.00 0.00 66 986.3
20260509100059 71 40 0.0 0.0 0.00 0.00 0.00 66 985.6
20260509094604 71 40 0.0 3.5 0.00 0.00 0.00 66 985.6
20260509093041 71 35 3.5 7.8 0.00 0.00 0.00 66 985.7
20260509091542 71 200 0.0 0.0 0.00 0.00 0.00 67 985.1
20260509090023 71 200 0.0 0.0 0.00 0.00 0.00 67 984.9
20260509084524 71 200 0.0 0.0 0.00 0.00 0.00 67 985.1
20260509083002 71 200 0.0 0.0 0.00 0.00 0.00 67 985.2
20260509081502 71 200 0.0 0.0 0.00 0.00 0.00 68 985.2
20260509074550 71 198 0.0 0.0 0.00 0.00 0.00 68 985.5
20260509073056 71 196 0.0 0.0 0.00 0.00 0.00 69 985.9
20260509071556 71 196 0.0 0.0 0.00 0.00 0.00 69 986.1
20260509070049 71 199 0.0 2.6 0.00 0.00 0.00 69 985.8
20260509064601 72 220 1.7 5.2 0.00 0.00 0.00 70 985.8
20260509063047 72 206 2.6 4.3 0.00 0.00 0.00 70 985.8
20260509061547 72 183 0.0 0.0 0.00 0.00 0.00 70 985.6
20260509060044 71 183 0.0 0.0 0.00 0.00 0.00 70 985.8
20260509054529 71 184 0.0 0.0 0.00 0.00 0.00 70 985.0
20260509053025 71 184 0.0 0.0 0.00 0.00 0.00 71 984.8
20260509051507 71 190 0.0 0.0 0.00 0.00 0.00 71 984.5
20260509050006 71 192 0.0 0.0 0.00 0.00 0.00 71 984.7
20260509044548 71 193 0.0 0.0 0.00 0.00 0.00 72 984.7
20260509043047 71 193 0.0 0.0 0.00 0.00 0.00 72 984.8
20260509041548 71 192 0.0 2.6 0.00 0.00 0.00 73 984.9
20260509040029 71 192 0.9 4.3 0.00 0.00 0.00 73 984.7
20260509034508 71 188 2.6 4.3 0.00 0.00 0.00 75 984.6
20260509033006 71 185 0.0 0.0 0.00 0.00 0.00 76 984.6
20260509031546 71 185 0.9 4.3 0.00 0.00 0.00 76 984.4
20260509030046 72 188 1.7 4.3 0.00 0.00 0.00 77 984.2
20260509024525 72 200 2.6 6.1 0.00 0.00 0.00 77 983.9
20260509023027 72 202 2.6 4.3 0.00 0.00 0.00 78 983.9
20260509021504 72 156 0.0 0.0 0.00 0.00 0.00 79 984.0
20260509020005 73 110 0.0 0.0 0.00 0.00 0.00 80 983.7
20260509014548 73 109 0.0 0.0 0.00 0.00 0.00 80 983.6
20260509013054 73 109 0.0 0.0 0.00 0.00 0.00 80 983.6
20260509011554 73 103 0.0 0.0 0.00 0.00 0.00 81 983.5
20260509010051 74 88 0.0 0.0 0.00 0.00 0.00 81 983.5
20260509004544 74 88 0.0 0.0 0.00 0.00 0.00 81 983.5
20260509003043 74 88 0.0 0.0 0.00 0.00 0.00 81 983.6
20260509001542 74 88 0.0 0.0 0.00 0.00 0.00 82 983.6
20260509000041 74 88 0.0 0.0 0.00 0.00 0.00 82 983.6
20260508234524 74 88 3.5 7.0 0.00 0.00 0.00 82 983.6
20260508233021 75 76 3.5 7.8 0.00 0.00 0.00 81 983.8
20260508231559 76 79 2.6 5.2 0.00 0.00 0.00 81 983.7
20260508230059 76 104 1.7 5.2 0.00 0.00 0.00 80 983.7
20260508224537 76 111 2.6 7.0 0.00 0.00 0.00 80 983.7
20260508223035 76 87 0.9 3.5 0.00 0.00 0.00 81 983.8
20260508221515 75 80 1.7 7.0 0.00 0.00 0.00 81 983.8
20260508220023 75 101 1.7 5.2 0.00 0.00 0.00 81 984.0
20260508214556 75 87 2.6 7.0 0.00 0.00 0.00 81 984.0
20260508213053 74 90 4.3 7.8 0.00 0.00 0.00 81 984.0
20260508211538 74 97 3.5 6.1 0.00 0.00 0.00 81 984.5
20260508210031 74 101 0.0 6.1 0.00 0.00 0.00 81 984.7
20260508204510 73 93 3.5 7.0 0.00 0.00 0.00 81 984.8
20260508203006 73 74 0.9 7.0 0.00 0.00 0.00 81 985.3
20260508201549 73 82 2.6 7.8 0.00 0.00 0.00 81 985.5
20260508200104 73 71 2.6 7.8 0.00 0.00 0.00 81 985.5
20260508194533 72 71 3.5 7.8 0.00 0.00 0.00 81 985.6
20260508193022 72 98 1.7 6.1 0.00 0.00 0.00 81 986.0
20260508191504 71 98 1.7 6.1 0.00 0.00 0.00 81 986.2
20260508190104 71 111 0.0 5.2 0.00 0.00 0.00 81 986.4